Location: Berduj
(43.0019°N, 22.3781°E)
Time: 13:36:38
(UTC+00:00)

Cosmos 1833 Rocket - Visible Passes

Search period start: 25 January 2020 00:00
Search period end: 04 February 2020 00:00
Orbit: 831 x 841 km, 71.0° (Epoch: 24 January)

Date Brightness Start Highest point End Pass type
(mag) Time Alt. Az. Time Alt. Az. Time Alt. Az.
01 Feb 4.9 17:45:01 10° NNE 17:45:25 11° NNE 17:45:25 11° NNE visible
01 Feb 5.4 19:27:07 10° NNW 19:27:07 10° NNW 19:27:07 10° NNW visible
02 Feb 4.7 17:28:31 10° NNE 17:29:23 11° NNE 17:29:23 11° NNE visible
02 Feb 5.1 19:10:24 10° NNW 19:11:05 14° NNW 19:11:05 14° NNW visible
03 Feb 4.6 17:12:05 10° NNE 17:13:25 12° NNE 17:13:25 12° NNE visible
03 Feb 4.8 18:53:41 10° NNW 18:55:08 18° NNW 18:55:08 18° NNW visible
